Geva Airport


Codes: AGEV/GEF
Name: Geva Airport
City: Liangia
Country: Solomon Islands
Elevation: 0 ft.

Photos at Geva Airport


   Photos courtesy of SpottingLog. You can add your own sightings and photos by signing up for a free trial today.



No photos found.

Weather at Geva Airport


Time (UTC)DescriptionTempratureWindCloud coverageVisibilityPressureHumidity
18-Apr-2024 00:00Light Rain28°C4 mph, NW97%10000m1009hPa74%
18-Apr-2024 03:00Light Rain29°C7 mph, NW80%10000m1008hPa74%
18-Apr-2024 06:00Light Rain29°C4 mph, NW49%10000m1007hPa72%
18-Apr-2024 09:00Light Rain29°C2 mph, NW20%10000m1008hPa75%
18-Apr-2024 12:00Light Rain28°C4 mph, N59%10000m1010hPa77%
18-Apr-2024 15:00Light Rain28°C4 mph, NW26%10000m1008hPa78%
18-Apr-2024 18:00Scattered Clouds28°C4 mph, N39%10000m1008hPa78%
18-Apr-2024 21:00Broken Clouds28°C4 mph, N57%10000m1010hPa78%
19-Apr-2024 00:00Light Rain29°C7 mph, N45%10000m1010hPa76%
19-Apr-2024 03:00Light Rain29°C7 mph, NW28%10000m1008hPa74%
19-Apr-2024 06:00Few Clouds29°C4 mph, NW18%10000m1007hPa72%
19-Apr-2024 09:00Few Clouds29°C4 mph, NW24%10000m1009hPa74%
19-Apr-2024 12:00Light Rain28°C4 mph, NW46%10000m1010hPa75%
19-Apr-2024 15:00Light Rain28°C4 mph, NW37%10000m1009hPa78%
19-Apr-2024 18:00Light Rain28°C4 mph, NW59%10000m1009hPa77%
19-Apr-2024 21:00Broken Clouds28°C4 mph, N57%10000m1011hPa76%
20-Apr-2024 00:00Scattered Clouds29°C4 mph, N41%10000m1010hPa72%
20-Apr-2024 03:00Few Clouds29°C4 mph, NW24%10000m1008hPa72%
20-Apr-2024 06:00Light Rain29°C2 mph, NW21%10000m1007hPa69%
20-Apr-2024 09:00Light Rain29°C2 mph, NE35%10000m1009hPa71%
20-Apr-2024 12:00Light Rain28°C0 mph, E51%10000m1010hPa73%
20-Apr-2024 15:00Light Rain28°C2 mph, NW58%10000m1009hPa74%
20-Apr-2024 18:00Light Rain28°C2 mph, N49%10000m1009hPa76%
20-Apr-2024 21:00Few Clouds28°C2 mph, NE24%10000m1010hPa75%
21-Apr-2024 00:00Scattered Clouds29°C4 mph, N50%10000m1010hPa73%
21-Apr-2024 03:00Overcast Clouds29°C7 mph, NW87%10000m1008hPa71%
21-Apr-2024 06:00Light Rain29°C4 mph, NW93%10000m1007hPa69%
21-Apr-2024 09:00Light Rain29°C4 mph, N100%10000m1009hPa73%
21-Apr-2024 12:00Light Rain29°C2 mph, N96%10000m1010hPa73%
21-Apr-2024 15:00Broken Clouds28°C2 mph, NE54%10000m1008hPa75%
21-Apr-2024 18:00Scattered Clouds28°C4 mph, NE50%10000m1008hPa76%
21-Apr-2024 21:00Few Clouds28°C4 mph, NE21%10000m1010hPa74%
22-Apr-2024 00:00Few Clouds29°C4 mph, NE14%10000m1010hPa70%
22-Apr-2024 03:00Clear Sky29°C2 mph, NE7%10000m1007hPa66%
22-Apr-2024 06:00Clear Sky29°C2 mph, E9%10000m1006hPa65%
22-Apr-2024 09:00Few Clouds29°C7 mph, E11%10000m1008hPa71%
22-Apr-2024 12:00Scattered Clouds28°C9 mph, E34%10000m1009hPa73%
22-Apr-2024 15:00Scattered Clouds28°C9 mph, E50%10000m1008hPa74%
22-Apr-2024 18:00Broken Clouds28°C9 mph, NE51%10000m1008hPa74%
22-Apr-2024 21:00Scattered Clouds28°C9 mph, NE32%10000m1009hPa74%